Вернуться в каталог

H-2A DEB

АктивенSSO
NORAD 43069·DEBRIS·🇯🇵 Japan

Запущен Dec 23, 2017 с Tanegashima Space Center

Loading…

Ближайшие Пролёты (ближайшие 24 часа)

TLE

СвежийSource: Space-Track

Эпоха: Sep 14, 2026, 03:55 UTC

1 43069U 17082E   26257.16328036  .00002736  00000-0  60214-3 0  9995
2 43069  98.2445 323.8326 0022307 211.6593 148.3266 14.58119664459704

Отслеживайте H-2A DEB в реальном времени с AllMySat

Download on the App Store